Preview of NWS' New Version of Forecast
This preview is not operational and should not be used for support decisions.

Regional Weather Roundup (RWR)

Issued by Gray - Portland, ME (GYX)

                            
204 
ASUS41 KGYX 181606
RWRGYX
WEATHER ROUNDUP FOR MAINE AND NEW HAMPSHIRE
NATIONAL WEATHER SERVICE GRAY ME
1100 AM EST SUN FEB 18 2018

MEZ002-005-006-010-012-015-018-020-021-024-026-027-029-181700-
MAINE
  
CITY           SKY/WX    TMP DP  RH WIND       PRES   REMARKS
PORTLAND       FAIR      36  27  69 NW15      30.14R                  
SANFORD        FAIR      36  24  62 NW14G20   30.15R                  
BAR HARBOR     CLOUDY    33  27  78 N10G22    30.07R                  
WISCASSET      FAIR      36  30  79 VRB6      30.13R                  
ROCKLAND       FAIR      34  29  82 VRB7      30.10R                  
FRYEBURG       FAIR      35  21  56 W13G21    30.14R                  
LEWISTONAUBURN FAIR      35  22  58 NW18G25   30.13R                  
AUGUSTA        FAIR      35  24  64 NW13G21   30.11R                  
WATERVILLE     FAIR      34  24  67 NW9       30.07R                  
BANGOR         PTSUNNY   31  26  82 N9        30.09R                  
GREENVILLE       N/A     27  19  72 NW16G23   30.02R WCI  15          
MILLINOCKET    FAIR      31  24  75 W9G18     30.07R                  
HOULTON        FAIR      29  22  75 N5        30.02R                  
PRESQUE ISLE   FAIR      26  20  77 VRB3      30.04R                  
FRENCHVILLE    FAIR      25  18  74 NW6       29.98R                  
CARIBOU        FAIR      27  19  72 CALM      30.01R                  
$$

NHZ002-005-008-009-011-012-014-181700-
NEW HAMPSHIRE
  
CITY           SKY/WX    TMP DP  RH WIND       PRES   REMARKS
PORTSMOUTH     MOSUNNY   36  24  61 NW25G32   30.15R                  
ROCHESTER      FAIR      36  24  62 NW24G30   30.14R                  
NASHUA         PTSUNNY   37  28  70 NW15G23   30.19R                  
MANCHESTER     PTSUNNY   37  25  61 NW17G25   30.17R                  
CONCORD        FAIR      35  24  64 NW16G26   30.18R                  
LACONIA        CLOUDY    33  20  58 W14G21    30.18R                  
PLYMOUTH       CLOUDY    33  21  62 W14G21    30.19R                  
BERLIN         CLOUDY    30  19  63 NW8G18    30.13R                  
WHITEFIELD     CLOUDY    30  21  69 W9        30.17R                  
JAFFREY        PTSUNNY   33  21  61 VRB6G24   30.18R                  
KEENE          FAIR      38  21  50 N16G22    30.21R                  
LEBANON        CLOUDY    34  23  64 N6        30.21R                  
MT WASHINGTON  SNOW       7   7 100 W63         N/A  VSB 0   WCI -24  
$$

VTZ005-007-008-181700-
VERMONT
  
CITY           SKY/WX    TMP DP  RH WIND       PRES   REMARKS
ST JOHNSBURY     N/A     30  23  75 MISG      30.19R                  
MONTPELIER     CLOUDY    29  22  75 NW10      30.22R WCI  20          
BURLINGTON     CLOUDY    33  22  63 VRB3      30.25R                  
$$

MAZ007-012-024-CTZ003-RIZ002-NYZ038-NYZ072-181700-
SOUTHERN NEW ENGLAND AND NY
  
CITY           SKY/WX    TMP DP  RH WIND       PRES   REMARKS
BOSTON         FAIR      38  27  64 NW22G29   30.20R                  
WORCESTER      FAIR      34  21  59 NW24G32   30.16S                  
NANTUCKET      FAIR      40  32  73 NW20      30.14R                  
PROVIDENCE     FAIR      40  26  57 NW18G30   30.18R                  
HARTFORD       FAIR      37  22  54 N22G29    30.18F                  
ALBANY         PTSUNNY   35  25  66 NW18G28   30.25F                  
NEW YORK CITY  FAIR      41  21  44 N8G20     30.30R                  
$$

ANZ081-ANZ082-ANZ150-NHZ014-MEZ023>029-181700-
COASTAL MARINE OBSERVATIONS
  
STATION/POSITION TIME  TEMP    WIND        PRES    WAVE
                       AIR SEA DIR/SP/G            HT/PER
                 (UTC) (F)     (DEG/KT/KT) (MB)    (FT/S)
MOUNT DESERT ROC 1600   33     320/ 22/ 23 1017.0R
MATINICUS ROCK   1500   33     340/ 26/ 29 1016.1R
ISLE OF SHOALS   1500   33     310/ 18/ 19 1019.3R
JEFFREYS LEDGE   1536      42                N/A     6/ 7
GEORGES BANK BUO 1450   37 44              1022.1    7/ 9
$$

.............KEY..............
   WCI - WIND CHILL
   TC  - TEMPERATURE IN CELSIUS
   VSB - VISIBILITY IN MILES
   HX  - HEAT INDEX
   FAIR- INDICATES FEW OR NO CLOUDS BELOW 12,000 FT, WITH NO 
         SIGNIFICANT WEATHER AND/OR OBSTRUCTIONS TO VISIBILITY.